Weather History for Kremmling, CO

Change the Weather History Date:

Sunday, February 17, 2013

  Actual Average (KEGE) Record (KEGE)
Temperature  
Mean Temperature 18 °F -  
Max Temperature 41 °F 40 °F 56 °F (1954)
Min Temperature -5 °F 14 °F -10 °F (1973)
Degree Days  
Heating Degree Days 47    
Moisture  
Dew Point 4 °F    
Average Humidity 63    
Maximum Humidity 85    
Minimum Humidity 23    
Precipitation  
Precipitation 0.00 in - - ()
Sea Level Pressure  
Sea Level Pressure 29.88 in    
Wind  
Wind Speed 2 mph (NW)    
Max Wind Speed 21 mph    
Max Gust Speed 34 mph    
Averages and records for this station are not official NWS values.
T = Trace of Precipitation, MM = Missing Value Source: NWS Daily Summary

Daily Weather History Graph

Daily Weather History Graph

Search for Another Location

Airport:

Trip Planner

Search our weather history database for the weather conditions in past years. The results will help you decide how hot, cold, wet, or windy it might be!

Date:

Astronomy

Feb. 17, 2013 Rise Set
Actual Time 6:55 AM MST 5:44 PM MST
Civil Twilight 6:27 AM MST 6:11 PM MST
Nautical Twilight 5:56 AM MST 6:43 PM MST
Astronomical Twilight 5:24 AM MST 7:14 PM MST
Moon 10:50 AM MST (2/17) 12:42 AM MST (2/17)
Length of Visible Light 11h 43m
Length of Day
10h 48m
Waxing Crescent, 49% of the Moon is Illuminated
Feb 17
Waxing Crescent
Feb 17
First Quarter
Feb 25
Full
Mar 4
Last Quarter
Mar 11
New

Hourly Weather History & Observations

Time (MST) Temp. Windchill Dew Point Humidity Pressure Visibility Wind Dir Wind Speed Gust Speed Precip Events Conditions
12:16 AM 1.4 °F - -2.2 °F 85% 30.12 in - Calm Calm - N/A   Unknown
12:36 AM 1.4 °F - -2.2 °F 85% 30.12 in - Calm Calm - N/A   Unknown
12:56 AM -0.4 °F -8.3 °F -4.0 °F 85% 30.12 in - SSE 3.5 mph - N/A   Unknown
1:16 AM 1.4 °F - -4.0 °F 78% 30.11 in - Calm Calm - N/A   Clear
1:36 AM 1.4 °F - -4.0 °F 78% 30.10 in - Calm Calm - N/A   Clear
1:56 AM 1.4 °F -6.2 °F -4.0 °F 78% 30.09 in - NE 3.5 mph - N/A   Unknown
2:16 AM 1.4 °F - -4.0 °F 78% 30.09 in - Calm Calm - N/A   Unknown
2:36 AM -0.4 °F -8.3 °F -4.0 °F 85% 30.07 in - NE 3.5 mph - N/A   Unknown
2:56 AM -0.4 °F - -5.8 °F 78% 30.07 in - Calm Calm - N/A   Clear
3:16 AM -0.4 °F - -4.0 °F 85% 30.06 in - Calm Calm - N/A   Unknown
3:36 AM -2.2 °F - -5.8 °F 85% 30.06 in - Calm Calm - N/A   Unknown
3:56 AM -4.0 °F - -7.6 °F 85% 30.04 in - Calm Calm - N/A   Clear
4:16 AM -5.8 °F - -9.4 °F 84% 30.04 in - Calm Calm - N/A   Clear
4:36 AM -4.0 °F - -7.6 °F 85% 30.03 in - Calm Calm - N/A   Clear
4:56 AM -4.0 °F - -9.4 °F 78% 30.03 in - Calm Calm - N/A   Clear
5:16 AM -4.0 °F - -7.6 °F 85% 30.02 in - Calm Calm - N/A   Clear
5:36 AM -2.2 °F - -7.6 °F 78% 30.02 in - Calm Calm - N/A   Clear
5:56 AM -2.2 °F - -7.6 °F 78% 30.02 in - Calm Calm - N/A   Clear
6:15 AM -5.8 °F - -9.4 °F 84% 30.01 in - Calm Calm - N/A   Clear
6:36 AM -5.8 °F - -9.4 °F 84% 30.00 in - Calm Calm - N/A   Unknown
6:55 AM -4.0 °F - -9.4 °F 78% 29.99 in - Calm Calm - N/A   Clear
7:16 AM -5.8 °F - -9.4 °F 84% 29.99 in - Calm Calm - N/A   Clear
7:36 AM -4.0 °F - -9.4 °F 78% 29.99 in - Calm Calm - N/A   Clear
7:56 AM -2.2 °F - -7.6 °F 78% 29.98 in - Calm Calm - N/A   Clear
8:16 AM -0.4 °F - -5.8 °F 78% 29.97 in - Calm Calm - N/A   Clear
8:36 AM 1.4 °F - -4.0 °F 78% 29.97 in - Calm Calm - N/A   Clear
8:56 AM 3.2 °F - -2.2 °F 78% 29.96 in - Calm Calm - N/A   Clear
9:16 AM 5.0 °F - 1.4 °F 85% 29.96 in - Calm Calm - N/A   Clear
9:36 AM 6.8 °F - 1.4 °F 79% 29.94 in - Calm Calm - N/A   Clear
9:56 AM 8.6 °F - 1.4 °F 73% 29.93 in - Calm Calm - N/A   Clear
10:16 AM 10.4 °F - 3.2 °F 73% 29.91 in - Calm Calm - N/A   Clear
10:36 AM 12.2 °F - 3.2 °F 67% 29.90 in - Calm Calm - N/A   Clear
10:56 AM 14.0 °F - 5.0 °F 67% 29.88 in - Calm Calm - N/A   Clear
11:16 AM 17.6 °F - 5.0 °F 58% 29.86 in - Calm Calm - N/A   Clear
11:36 AM 19.4 °F - 6.8 °F 58% 29.85 in - Calm Calm - N/A   Clear
11:56 AM 19.4 °F - 6.8 °F 58% 29.83 in - Calm Calm - N/A   Clear
12:16 PM 21.2 °F - 8.6 °F 58% 29.81 in - Calm Calm - N/A   Clear
12:36 PM 24.8 °F - 10.4 °F 54% 29.79 in - Calm Calm - N/A   Clear
12:56 PM 26.6 °F - 10.4 °F 51% 29.77 in - Calm Calm - N/A   Clear
1:16 PM 28.4 °F - 12.2 °F 51% 29.75 in - Calm Calm - N/A   Clear
1:36 PM 28.4 °F - 14.0 °F 55% 29.74 in - Calm Calm - N/A   Clear
1:55 PM 30.2 °F - 14.0 °F 51% 29.72 in - Calm Calm - N/A   Clear
2:15 PM 30.2 °F - 14.0 °F 51% 29.71 in - Calm Calm - N/A   Clear
2:36 PM 33.8 °F - 12.2 °F 41% 29.70 in - Calm Calm - N/A   Clear
2:56 PM 39.2 °F 30.5 °F 8.6 °F 28% 29.69 in - WSW 16.1 mph 25.3 mph N/A   Clear
3:15 PM 41.0 °F 32.2 °F 5.0 °F 23% 29.69 in - WSW 18.4 mph 23.0 mph N/A   Clear
3:35 PM 41.0 °F 33.5 °F 5.0 °F 23% 29.69 in - WSW 13.8 mph 20.7 mph N/A   Clear
3:56 PM 41.0 °F 35.2 °F 5.0 °F 23% 29.68 in - WSW 9.2 mph 24.2 mph N/A   Clear
4:16 PM 37.4 °F 30.3 °F 8.6 °F 30% 29.68 in - WSW 10.4 mph - N/A   Clear
4:36 PM 39.2 °F 29.3 °F 5.0 °F 24% 29.68 in - West 20.7 mph 34.5 mph N/A   Clear
5:16 PM 35.6 °F 28.6 °F 6.8 °F 30% 29.68 in - West 9.2 mph - N/A   Clear
5:36 PM 33.8 °F 30.8 °F 8.6 °F 35% 29.69 in - North 3.5 mph - N/A   Clear
5:56 PM 30.2 °F - 12.2 °F 47% 29.69 in - Calm Calm - N/A   Clear
6:16 PM 26.6 °F 19.1 °F 12.2 °F 55% 29.69 in - East 6.9 mph - N/A   Clear
6:36 PM 28.4 °F 23.3 °F 12.2 °F 51% 29.70 in - North 4.6 mph - N/A   Clear
6:55 PM 28.4 °F 19.1 °F 12.2 °F 51% 29.71 in - North 10.4 mph - N/A   Clear
7:16 PM 30.2 °F 23.4 °F 14.0 °F 51% 29.73 in - NNW 6.9 mph - N/A   Mostly Cloudy
7:36 PM 30.2 °F 26.7 °F 15.8 °F 55% 29.74 in - NW 3.5 mph - N/A   Overcast
7:56 PM 30.2 °F 21.3 °F 17.6 °F 60% 29.74 in - NNW 10.4 mph 18.4 mph N/A   Overcast
8:16 PM 30.2 °F - 19.4 °F 64% 29.76 in - Calm Calm - N/A   Overcast
8:36 PM 30.2 °F 23.4 °F 15.8 °F 55% 29.77 in - North 6.9 mph - N/A   Overcast
8:55 PM 28.4 °F 18.5 °F 14.0 °F 55% 29.79 in - NNW 11.5 mph 17.3 mph N/A   Overcast
9:16 PM 26.6 °F 15.2 °F 10.4 °F 51% 29.80 in - NNW 13.8 mph 19.6 mph N/A   Overcast
9:36 PM 24.8 °F 16.1 °F 10.4 °F 54% 29.81 in - NW 8.1 mph - N/A   Overcast
9:56 PM 24.8 °F 16.1 °F 12.2 °F 59% 29.82 in - NNW 8.1 mph 11.5 mph N/A   Overcast
10:16 PM 23.0 °F 14.7 °F 10.4 °F 59% 29.82 in - NW 6.9 mph 17.3 mph N/A   Overcast
10:36 PM 23.0 °F 13.9 °F 12.2 °F 63% 29.83 in - NNW 8.1 mph - N/A   Overcast
10:56 PM 23.0 °F 17.0 °F 10.4 °F 59% 29.83 in - North 4.6 mph - N/A   Overcast
11:15 PM 23.0 °F - 10.4 °F 59% 29.83 in - Calm Calm - N/A   Overcast
11:36 PM 23.0 °F 18.4 °F 8.6 °F 54% 29.83 in - NNW 3.5 mph - N/A   Overcast
11:56 PM 23.0 °F 13.9 °F 10.4 °F 59% 29.83 in - NNW 8.1 mph - N/A   Overcast